User: anonymous   Login
Location: N�rnberg
(49.4471°N, 11.0632°E)
Time: 16:36:56
(UTC+02:00)
Language:

VELOX 1 - Orbit

View from above orbital plane
View from above orbital plane
View from above satellite
View from above satellite

Ground track
Ground track

The orbit is defined by the following mean orbital elements,

1 40057U          26101.30910198 +.00000000 +00000-0 +30871-3 0 00002
2 40057  98.2578   2.5368 0008065 126.2205 233.9762 14.97276653    00
Epoch (UTC): 11 April 2026 07:25:06
Eccentricity: 0.0008065
inclination: 98.2578°
perigee height: 570 km
apogee height: 581 km
right ascension of ascending node: 2.5368°
argument of perigee: 126.2205°
revolutions per day: 14.97276653
mean anomaly at epoch: 233.9762°

The dashed part of the orbit path shows where the satellite is in the earth's shadow,  

DLR